Hourly Data Report for September 19, 2017

All times are specified in Local Standard Time (LST). Add 1 hour to adjust for Daylight Saving Time where and when it is observed.

HALL BEACH A
NUNAVUT

68°46'33.000" N
81°14'33.000" W
9.10 m
2402354
71293
YUX

Related Data

No related data is available for this station

Download Data

Hourly Data (September 2017)
Hourly Data Report for September 19, 2017
Temp Definition
°C
Dew Point Temp Definition
°C
Rel Hum Definition
%
Wind Dir Definition
10's deg

Wind Spd Definition
km/h
Visibility Definition
km
Stn Press Definition
kPa
Hmdx Definition


Wind Chill Definition


Weather Definition


TIME
00:00 Legend Double Dagger 3.9 2.9 93 30 17 16.1 101.13     LegendNANA
01:00 Legend Double Dagger 3.6 2.7 94 31 17 16.1 101.16     LegendNANA
02:00 Legend Double Dagger 3.2 2.2 93 35 17 16.1 101.20     LegendNANA
03:00 Legend Double Dagger 2.9 1.9 93 34 15 16.1 101.25     LegendNANA
04:00 Legend Double Dagger 2.7 1.7 93 33 13 16.1 101.27     LegendNANA
05:00 Legend Double Dagger 2.6 1.4 92 34 17 16.1 101.31     LegendNANA
06:00 Legend Double Dagger 2.3 0.7 89 35 22 16.1 101.34     LegendNANA
07:00 Legend Double Dagger 2.0 0.4 89 36 21 16.1 101.39     LegendNANA
08:00 Legend Double Dagger 1.6 -0.5 86 35 24 16.1 101.39     LegendNANA
09:00 Legend Double Dagger 0.9 -0.4 91 35 24 16.1 101.44     LegendNANA
10:00 Legend Double Dagger 1.5 -0.3 88 36 24 16.1 101.46     LegendNANA
11:00 Legend Double Dagger 2.0 -0.4 84 36 22 16.1 101.49     LegendNANA
12:00 Legend Double Dagger 2.1 0.0 86 36 26 16.1 101.50     LegendNANA
13:00 Legend Double Dagger 2.7 0.6 86 36 22 16.1 101.53     LegendNANA
14:00 Legend Double Dagger 3.0 0.3 82 36 21 16.1 101.56     LegendNANA
15:00 Legend Double Dagger 3.5 0.1 78 1 22 16.1 101.58     LegendNANA
16:00 Legend Double Dagger 3.4 0.1 79 1 28 16.1 101.61     LegendNANA
17:00 Legend Double Dagger 2.8 -0.4 79 36 30 16.1 101.64     LegendNANA
18:00 Legend Double Dagger 2.2 -0.7 81 1 28 16.1 101.69     LegendNANA
19:00 Legend Double Dagger 1.7 -0.9 83 1 32 16.1 101.72     LegendNANA
20:00 Legend Double Dagger 1.3 -0.9 85 1 32 16.1 101.75     LegendNANA
21:00 Legend Double Dagger 1.5 -0.6 86 1 28 16.1 101.79     LegendNANA
22:00 Legend Double Dagger 1.3 -0.6 87 2 26 16.1 101.85     LegendNANA
23:00 Legend Double Dagger 1.2 -0.6 88 2 30 16.1 101.89     LegendNANA

Notes on Data Quality.

Legend

  • E = Estimated
  • M = Missing
  • NA = Not Available
  • ‡ = Partner data that is not subject to review by the National Climate Archives
Date modified: